Date String (YYYY-MM-DD hh:mm:ss) UTC,Instrument flags,Ambient pressure (hPa),Sample flow (lpm),Bypass flow (lpm),Sample temperature (°C),Ambient temperature (°C),ASC tube jacket temperature (°C),LED temperature (°C),Box temperature (°C),Sample RH (%),Span deviation,Mass concentration (μg/m³),Mass concentration (μg/m³),Mass concentration (μg/m³)
DateTimeUTC,F1_M11,P_M11,Q1_M11,Q2_M11,T1_M11,T2_M11,T3_M11,T4_M11,T5_M11,U1_M11,ZSPAN_M11,X0_M11,X2_M11,X1_M11
2021-09-13 05:00:00,,0828.8,4.98,0.00,29.5,28.3,00.0,38.6,31.3,25.5,0003.0,0011.74,0006.01,0004.97
2021-09-13 05:01:00,,0828.6,5.00,0.00,29.5,28.4,00.0,38.6,31.3,25.4,0003.0,0011.78,0005.96,0004.94
2021-09-13 05:02:00,,0828.7,5.00,0.00,29.5,28.4,00.0,38.6,31.3,25.4,0003.2,0012.07,0005.92,0004.91
2021-09-13 05:03:00,,0828.6,5.02,0.00,29.5,28.5,00.0,38.6,31.3,25.4,0003.1,0012.00,0005.88,0004.88
2021-09-13 05:04:00,,0828.7,5.00,0.00,29.5,28.6,00.0,38.7,31.3,25.5,0003.0,0011.90,0005.82,0004.86
2021-09-13 05:05:00,,0828.9,5.00,0.00,29.5,28.6,00.0,38.6,31.3,25.5,0003.0,0011.81,0005.77,0004.84
2021-09-13 05:06:00,,0828.8,5.01,0.00,29.6,28.6,00.0,38.7,31.3,25.6,0002.3,0011.66,0005.76,0004.83
2021-09-13 05:07:00,,0829.0,5.00,0.00,29.6,28.7,00.0,38.7,31.4,25.4,0003.2,0011.32,0005.74,0004.83
2021-09-13 05:08:00,,0829.1,4.99,0.00,29.6,28.7,00.0,38.7,31.4,25.7,0003.2,0011.34,0005.77,0004.83
2021-09-13 05:09:00,,0829.0,5.00,0.00,29.6,28.7,00.0,38.7,31.4,26.0,0003.1,0011.61,0005.79,0004.82
2021-09-13 05:10:00,,0829.0,5.00,0.00,29.6,28.8,00.0,38.7,31.4,25.8,0003.0,0011.30,0005.76,0004.80
2021-09-13 05:11:00,,0829.0,4.99,0.00,29.6,28.8,00.0,38.7,31.4,25.6,0002.5,0011.23,0005.77,0004.82
2021-09-13 05:12:00,,0829.0,5.00,0.00,29.6,28.8,00.0,38.7,31.4,25.7,0002.5,0011.41,0005.82,0004.82
2021-09-13 05:13:00,,0828.7,5.02,0.00,29.6,28.8,00.0,38.7,31.4,25.6,0000.0,0010.92,0005.85,0004.82
2021-09-13 05:14:00,,0828.7,4.99,0.00,29.7,28.8,00.0,38.8,31.4,25.1,0001.7,0010.89,0005.84,0004.82
2021-09-13 05:15:00,,0828.8,5.01,0.00,29.7,28.9,00.0,38.8,31.4,24.9,0001.9,0010.90,0005.83,0004.79
2021-09-13 05:16:00,,0828.7,5.00,0.00,29.7,28.9,00.0,38.8,31.4,25.0,0000.8,0010.88,0005.81,0004.76
2021-09-13 05:17:00,,0828.6,5.00,0.00,29.7,28.9,00.0,38.8,31.5,24.9,0000.0,0010.68,0005.80,0004.75
2021-09-13 05:18:00,,0828.8,5.00,0.00,29.7,28.9,00.0,38.8,31.5,25.0,0000.0,0010.58,0005.76,0004.72
2021-09-13 05:19:00,,0828.6,5.00,0.00,29.7,28.9,00.0,38.8,31.5,25.4,0000.0,0010.18,0005.68,0004.69
2021-09-13 05:20:00,,0828.7,5.00,0.00,29.7,28.9,00.0,38.8,31.5,24.8,0001.4,0009.80,0005.64,0004.67
2021-09-13 05:21:00,,0828.7,5.00,0.00,29.7,28.9,00.0,38.8,31.5,25.5,0001.5,0009.65,0005.60,0004.64
2021-09-13 05:22:00,,0829.0,5.01,0.00,29.8,28.9,00.0,38.8,31.5,26.2,0001.1,0009.49,0005.56,0004.62
2021-09-13 05:23:00,,0828.7,5.00,0.00,29.8,28.9,00.0,38.9,31.5,26.4,0001.0,0009.16,0005.48,0004.59
2021-09-13 05:24:00,,0828.6,5.00,0.00,29.8,29.0,00.0,38.9,31.5,26.1,0001.0,0009.18,0005.47,0004.59
2021-09-13 05:25:00,,0829.0,5.02,0.00,29.8,29.0,00.0,38.9,31.5,26.2,0000.9,0009.14,0005.47,0004.59
2021-09-13 05:26:00,,0828.8,5.00,0.00,29.8,29.0,00.0,38.9,31.5,26.2,0000.7,0009.36,0005.57,0004.61
2021-09-13 05:27:00,,0828.8,4.99,0.00,29.8,29.0,00.0,38.9,31.4,26.2,0000.3,0009.43,0005.62,0004.64
2021-09-13 05:28:00,,0828.7,5.00,0.00,29.8,29.0,00.0,38.9,31.5,26.5,0000.1,0009.47,0005.62,0004.65
2021-09-13 05:29:00,,0828.6,5.00,0.00,29.8,29.0,00.0,38.9,31.5,26.4,-000.2,0009.47,0005.63,0004.67
2021-09-13 05:30:00,,0828.8,4.99,0.00,29.8,29.0,00.0,38.9,31.5,26.2,0000.3,0009.47,0005.65,0004.69
2021-09-13 05:31:00,,0829.0,5.01,0.00,29.8,29.0,00.0,38.9,31.5,26.2,0000.0,0009.50,0005.65,0004.70
2021-09-13 05:32:00,,0828.7,5.00,0.00,29.8,28.9,00.0,38.9,31.4,26.4,-000.1,0009.46,0005.63,0004.70
2021-09-13 05:33:00,,0828.7,5.00,0.00,29.7,27.1,00.0,38.9,31.0,26.7,0000.1,0009.54,0005.64,0004.70
2021-09-13 05:34:00,,0828.8,5.00,0.00,29.5,26.0,00.0,38.8,30.7,26.2,0000.5,0009.62,0005.66,0004.71
2021-09-13 05:35:00,,0828.7,5.00,0.00,29.4,26.1,00.0,38.8,30.8,25.7,0001.0,0009.53,0005.63,0004.70
2021-09-13 05:36:00,,0829.0,5.01,0.00,29.3,26.5,00.0,38.7,30.8,25.6,0001.3,0009.79,0005.61,0004.68
2021-09-13 05:37:00,,0828.9,5.00,0.00,29.3,26.9,00.0,38.7,30.9,25.5,0001.8,0009.68,0005.54,0004.65
2021-09-13 05:38:00,,0828.9,5.01,0.00,29.3,27.3,00.0,38.6,30.9,25.8,0002.4,0009.65,0005.50,0004.62
2021-09-13 05:39:00,,0828.8,5.00,0.00,29.3,27.6,00.0,38.6,31.0,25.9,0002.4,0009.55,0005.47,0004.59
2021-09-13 05:40:00,,0828.8,4.99,0.00,29.3,27.8,00.0,38.6,31.0,26.1,0000.2,0009.53,0005.45,0004.58
2021-09-13 05:41:00,,0828.8,5.01,0.00,29.4,27.9,00.0,38.6,31.1,25.7,0003.1,0009.86,0005.51,0004.57
2021-09-13 05:42:00,,0828.8,4.99,0.00,29.4,28.1,00.0,38.6,31.1,25.8,0003.3,0009.95,0005.51,0004.56
2021-09-13 05:43:00,,0828.6,5.01,0.00,29.4,28.2,00.0,38.6,31.1,25.9,0003.7,0010.05,0005.53,0004.57
2021-09-13 05:44:00,,0828.8,5.00,0.00,29.4,28.3,00.0,38.6,31.1,26.3,0003.4,0010.05,0005.52,0004.57
2021-09-13 05:45:00,,0828.6,4.99,0.00,29.4,28.4,00.0,38.6,31.1,26.4,0003.2,0010.34,0005.46,0004.55
2021-09-13 05:46:00,,0828.7,4.99,0.00,29.4,28.4,00.0,38.6,31.2,25.3,0003.2,0010.78,0005.49,0004.54
2021-09-13 05:47:00,,0828.7,5.00,0.00,29.4,28.5,00.0,38.6,31.2,24.7,0002.9,0010.82,0005.52,0004.52
2021-09-13 05:48:00,,0828.6,4.99,0.00,29.4,28.5,00.0,38.6,31.2,24.8,0002.5,0010.72,0005.49,0004.51
2021-09-13 05:49:00,,0828.8,5.01,0.00,29.4,28.6,00.0,38.6,31.2,24.1,0001.9,0010.59,0005.44,0004.48
2021-09-13 05:50:00,,0828.7,5.01,0.00,29.5,28.6,00.0,38.6,31.2,23.7,0000.8,0010.52,0005.39,0004.44
2021-09-13 05:51:00,,0828.7,4.99,0.00,29.5,28.6,00.0,38.6,31.3,23.5,0001.2,0010.58,0005.36,0004.39
2021-09-13 05:52:00,,0828.9,5.01,0.00,29.5,28.6,00.0,38.6,31.3,24.0,0000.3,0010.13,0005.21,0004.32
2021-09-13 05:53:00,,0828.7,4.99,0.00,29.5,28.7,00.0,38.6,31.3,24.7,0000.0,0010.23,0005.13,0004.27
2021-09-13 05:54:00,,0828.7,5.00,0.00,29.5,28.7,00.0,38.6,31.3,24.5,0000.1,0010.40,0005.08,0004.22
2021-09-13 05:55:00,,0828.7,5.00,0.00,29.5,28.7,00.0,38.6,31.3,23.5,0000.0,0010.22,0004.98,0004.15
2021-09-13 05:56:00,,0829.1,5.01,0.00,29.5,28.7,00.0,38.6,31.3,23.6,0000.0,0009.81,0004.97,0004.11
2021-09-13 05:57:00,,0829.0,4.99,0.00,29.5,28.7,00.0,38.6,31.3,23.4,0000.0,0009.61,0004.95,0004.05
2021-09-13 05:58:00,,0829.1,4.99,0.00,29.6,28.8,00.0,38.7,31.3,23.1,0000.0,0009.23,0004.84,0004.01
2021-09-13 05:59:00,,0829.1,5.00,0.00,29.6,28.8,00.0,38.7,31.3,23.8,0000.0,0009.13,0004.78,0003.97
